Regional Weather Roundup
Issued by NWS

Home | Current Version | Previous Version | Graphics & Text | Print | Product List | Glossary On
Versions: 1 2 3 4 5 6 7 8 9 10 11 12 13 14 15 16 17 18 19 20 21 22 23 24 25 26 27 28 29 30 31 32 33 34 35 36 37 38 39 40 41 42 43 44 45 46 47 48 49 50
000
ASUS43 KMKX 010200
RWRWI

WISCONSIN REGIONAL WEATHER ROUNDUP
NATIONAL WEATHER SERVICE MILWAUKEE/SULLIVAN WI
800 PM CST TUE FEB 28 2017

NOTE: "FAIR" INDICATES FEW OR NO CLOUDS BELOW 12,000 FEET WITH NO
SIGNIFICANT WEATHER AND/OR OBSTRUCTIONS TO VISIBILITY.

WIZ001-002-006>008-014>016-023>028-010300-
NORTHWEST WISCONSIN

CITY           SKY/WX    TMP DP  RH WIND       PRES   REMARKS
SUPERIOR ARPT  CLOUDY    30  28  93 E10G20    29.83F WCI  21
ASHLAND        SNOW      28  26  92 NE20G29   29.80F VSB 1/2 WCI  15
HAYWARD        MIX PCPN  30  24  78 NE15G23   29.73S WCI  19
SIREN          LGT SNOW  30  29  95 NE15G29   29.74F VSB 1   WCI  19
CUMBERLAND     CLOUDY    32  27  80 N16G23    29.69S WCI  21
RICE LAKE      CLOUDY    33  29  87 N14G23    29.70R WCI  23
CHETEK         CLOUDY    35  31  87 N8        29.68R WCI  28
LADYSMITH      CLOUDY    35  32  89 NE13      29.68S WCI  26
EAU CLAIRE     NOT AVBL
MENOMONIE      CLOUDY    37  34  87 N9        29.66R WCI  31
NEW RICHMOND   CLOUDY    33  29  86 N14       29.70R WCI  23
OSCEOLA        CLOUDY    33  29  85 NE15      29.75R WCI  23
$$

WIZ003>005-009-010-017-018-010300-
NORTH CENTRAL WISCONSIN

CITY           SKY/WX    TMP DP  RH WIND       PRES   REMARKS
MANITOWISH WTR MIX PCPN  29  29 100 NE13      29.70R WCI  19
ARBOR VITAE    CLOUDY    33  32  96 NE15        N/A  FOG     WCI  23
WOODRUFF       CLOUDY    33  32  96 NE15        N/A  FOG     WCI  23
RHINELANDER    CLOUDY    35  32  88 NE9       29.65F WCI  28
EAGLE RIVER    CLOUDY    32  31  98 NE13      29.67F WCI  22
LAND O LAKES   CLOUDY    31  29  94 NE10      29.71S WCI  22
PHILLIPS       CLOUDY    31  31 100 N15       29.67R WCI  20
TOMAHAWK       CLOUDY    34  32  90 N7        29.65S WCI  28
MEDFORD        CLOUDY    35  33  93 NE9       29.61F WCI  28
MERRILL        NOT AVBL
$$

WIZ029-030-035-036-043>047-010300-
CENTRAL WISCONSIN

CITY           SKY/WX    TMP DP  RH WIND       PRES   REMARKS
WAUSAU         CLOUDY    39  35  86 NE9       29.59F WCI  33
MOSINEE        CLOUDY    37  37 100 NE13      29.60F FOG     WCI  29
MARSHFIELD     CLOUDY    39  36  89 NE9       29.58S FOG     WCI  33
STEVENS POINT  DRIZZLE   36  36 100 NE10      29.59F WCI  28
WAUPACA        CLOUDY    39  38  97 N7        29.61F FOG     WCI  34
WAUTOMA        CLOUDY    38  37  97 NE10      29.59S FOG     WCI  31
WISC RAPIDS    CLOUDY    39  39 100 E7        29.59F FOG     WCI  34
CAMP DOUGLAS   FOG       39  37  93 N7        29.57F VSB 1   WCI  34
$$

WIZ011>013-019>022-031-037>040-048>050-010300-
NORTHEAST WISCONSIN

CITY           SKY/WX    TMP DP  RH WIND       PRES   REMARKS
ANTIGO         CLOUDY    35  34  98 NE9       29.62S WCI  27
SHAWANO        DRIZZLE   39  38  95 NE10      29.63S WCI  33
OCONTO         CLOUDY    37  37  97 N10       29.62F WCI  30
STURGEON BAY   CLOUDY    38  37  97 NE12      29.62F FOG     WCI  30
GREEN BAY      FOG       36  36 100 NE15      29.60F VSB 1/2 WCI  27
MANITOWOC      NOT AVBL
APPLETON       CLOUDY    37  37 100 NE10      29.57F FOG     WCI  30
CLINTONVILLE   CLOUDY    37  37 100 NE10      29.62S FOG     WCI  30
OSHKOSH        FOG       38  37  97 NE12      29.57F VSB 3/4 WCI  30
$$

WIZ032>034-041-042-053>061-010300-
SOUTHWEST WISCONSIN

CITY           SKY/WX    TMP DP  RH WIND       PRES   REMARKS
LA CROSSE      CLOUDY    42  41  96 N10       29.59R FOG
SPARTA         CLOUDY    39  39 100 N6        29.59S FOG     WCI  35
VIROQUA        CLOUDY    40  40 100 N5        29.56R VSB 1/4
BOSCOBEL       FOG       45  44  97 S3        29.57R VSB 1/2
PRAIRIE DU CHI DRZL/FOG  42  41  97 CALM      29.56R VSB 1/2
PLATTEVILLE    CLOUDY    51  51 100 N12       29.52R
$$

WIZ056-057-062-063-064-067-068-010300-
SOUTH CENTRAL WISCONSIN

CITY           SKY/WX    TMP DP  RH WIND       PRES   REMARKS
REEDSBURG      FOG       40  40 100 NE3       29.55S VSB 1/2
BARABOO/DELLS  FOG       39  38  99 N3        29.55F VSB<1/4
LONE ROCK      FOG       46  45  96 NE6       29.53F VSB 1/2
MINERAL POINT  HVY RAIN  50  50 100 NW15G25   29.52R
MADISON        FOG       45  45 100 NE6       29.51F VSB 1/4
MIDDLETON      CLOUDY    47  47 100 E6        29.52F VSB 1/4
WATERTOWN      CLOUDY    48  48 100 NE5       29.52F FOG
MONROE         LGT RAIN  52  50  93 SW7       29.52R
JANESVILLE     CLOUDY    54  52  94 CALM      29.50F
$$

WIZ051-052-058>065-066-070>072-010300-
SOUTHEAST WISCONSIN

CITY           SKY/WX    TMP DP  RH WIND       PRES   REMARKS
MILWAUKEE      CLOUDY    47  45  93 N5        29.50F FOG
WAUKESHA       CLOUDY    43  43 100 CALM      29.53F FOG
MILWAUKEE/TIMM NOT AVBL
RACINE         FOG       50  48  93 S6        29.51F VSB 1/4
KENOSHA        CLOUDY    52  51  97 S8        29.51F FOG
FOND DU LAC    FOG       40  37  89 N8        29.56F VSB 1/2 WCI  34
SHEBOYGAN      FOG       38  37  97 N8        29.55F VSB 1/4 WCI  32
WEST BEND      SNOW      41  41 100 NE5       29.55F VSB 1/4
JUNEAU         SNOW      40  40  99 MISG      29.54F VSB<1/4
$$

LSZ147-162-010300-
LAKE SUPERIOR

STATION/POSITION TIME  TEMP    WIND        PRES    WAVE
                       AIR SEA DIR/SP/G            HT/PER
                 (UTC) (F)     (DEG/KT/KT) (MB)    (FT/S)
DEVILS ISLAND    0100   28      40/ 27/ 30 1011.4F
PORT WING        0140   29      50/ 20/ 26 1010.5R
SAXON HARBOR     0140   30      40/ 25/ 30 1009.1R
$$

LMZ867-665-643>646-010300-
LAKE MICHIGAN

STATION/POSITION TIME  TEMP    WIND        PRES    WAVE
                       AIR SEA DIR/SP/G            HT/PER
                 (UTC) (F)     (DEG/KT/KT) (MB)    (FT/S)
CHAMBERS ISLAND  0140   34     360/ 13/ 15 1003.7S
NORTHPORT PIER   0140   36      10/ 10/ 14 1004.4R
SISTER BAY       0105   37      30/  9/ 13   N/A
KEWAUNEE LAKESHO 0130   38      30/  8/ 12 1002.5S
SHEBOYGAN LAKESH 0100   37      30/  9/  9 1002.4R
PORT WASHINGTON  0130   41      10/  5/  7 1001.7F
MILWAUKEE LAKESH 0140   42      20/  6/  7   N/A
KENOSHA   LAKESH 0100   52     140/  9/  9 1000.0
$$

TC  - TEMPERATURE IN CELSIUS
VSB - VISIBILITY IN STATUTE MILES
WCI - WIND CHILL INDEX
HX  - HEAT INDEX





USA.gov is the U.S. government's official web portal to all federal, state and local government web resources and services.